CW0639 Weather Reports


time (UTC)temp
C
wind
direction
speed
KPH
gust
KPH
rain 1hr
cm
rain 24hr
cm
rain mn
cm
humidity
%
barometer
mb
20260906140312 27 286 4.8 12.9 0.00 0.03 0.00 88 1010.8
20260906134818 27 311 1.6 6.4 0.00 0.03 0.00 90 1011.1
20260906133318 26 355 4.8 12.9 0.00 0.03 0.00 90 1011.1
20260906131826 26 219 1.6 8.0 0.00 0.03 0.00 91 1011.3
20260906130333 26 212 3.2 8.0 0.00 0.03 0.00 92 1011.4
20260906124813 26 250 6.4 12.9 0.00 0.03 0.00 92 1011.2
20260906123339 25 298 3.2 11.3 0.00 0.03 0.00 92 1011.2
20260906121824 25 242 1.6 6.4 0.00 0.03 0.00 92 1011.1
20260906120331 25 274 1.6 4.8 0.00 0.03 0.00 92 1011.2
20260906114832 25 228 0.0 3.2 0.00 0.03 0.00 92 1011.1
20260906113319 25 255 1.6 3.2 0.00 0.03 0.00 92 1011.0
20260906111826 25 255 1.6 6.4 0.00 0.03 0.00 92 1010.6
20260906110324 25 292 1.6 6.4 0.00 0.03 0.00 92 1010.4
20260906104832 25 279 3.2 4.8 0.00 0.03 0.00 92 1010.4
20260906103343 25 224 1.6 6.4 0.00 0.03 0.00 92 1010.2
20260906101822 25 239 1.6 11.3 0.00 0.03 0.00 92 1010.0
20260906100329 25 226 3.2 11.3 0.00 0.03 0.00 92 1010.0
20260906094814 25 217 1.6 6.4 0.00 0.03 0.00 92 1010.1
20260906093316 25 223 1.6 6.4 0.00 0.03 0.00 92 1010.0
20260906091826 26 269 1.6 4.8 0.00 0.03 0.00 92 1009.8
20260906090313 26 250 1.6 4.8 0.00 0.03 0.00 91 1009.9
20260906084812 26 227 1.6 4.8 0.00 0.03 0.00 91 1009.8
20260906083322 26 252 1.6 3.2 0.00 0.03 0.00 91 1009.9
20260906081830 26 172 1.6 3.2 0.00 0.03 0.00 91 1009.8
20260906080336 26 249 1.6 1.6 0.00 0.03 0.00 91 1009.7
20260906074820 26 249 0.0 1.6 0.00 0.03 0.00 91 1009.8
20260906073328 26 249 0.0 4.8 0.00 0.03 0.00 91 1009.7
20260906071827 26 249 0.0 3.2 0.00 0.03 0.00 91 1009.7
20260906070313 26 249 1.6 3.2 0.00 0.03 0.00 91 1009.8
20260906064820 26 257 1.6 4.8 0.00 0.03 0.00 90 1009.8
20260906063319 26 187 0.0 4.8 0.00 0.03 0.00 90 1009.9
20260906061849 26 248 1.6 4.8 0.00 0.03 0.00 90 1010.0
20260906060457 26 232 1.6 8.0 0.00 0.03 0.00 90 1010.1
20260906054831 26 242 3.2 9.7 0.00 0.03 0.00 90 1010.2
20260906053320 26 265 3.2 8.0 0.00 0.03 0.00 90 1010.3
20260906051821 26 254 3.2 6.4 0.00 0.03 0.00 90 1010.4
20260906050326 26 140 1.6 4.8 0.00 0.03 0.00 90 1010.4
20260906044818 27 202 1.6 4.8 0.00 0.03 0.00 90 1010.5
20260906043317 27 194 1.6 4.8 0.00 0.03 0.00 90 1010.7
20260906041822 27 170 3.2 8.0 0.00 0.03 0.00 90 1010.6
20260906040329 27 221 1.6 6.4 0.00 0.03 0.00 90 1010.7
20260906034831 27 207 3.2 8.0 0.00 0.03 0.03 90 1011.0
20260906033336 27 196 1.6 6.4 0.00 0.03 0.03 90 1011.0
20260906031819 27 167 3.2 4.8 0.00 0.03 0.03 89 1011.2
20260906030328 27 180 1.6 3.2 0.00 0.03 0.03 89 1011.4
20260906024829 27 198 0.0 4.8 0.00 0.03 0.03 89 1011.3
20260906023346 27 121 3.2 6.4 0.00 0.03 0.03 88 1011.3
20260906021832 27 153 1.6 3.2 0.00 0.03 0.03 88 1011.1
20260906020321 27 187 1.6 4.8 0.00 0.03 0.03 88 1011.0
20260906014825 27 142 1.6 8.0 0.00 0.03 0.03 87 1010.7
20260906013314 28 184 3.2 9.7 0.00 0.03 0.03 86 1010.4
20260906011824 28 191 3.2 6.4 0.00 0.03 0.03 85 1010.3
20260906010326 28 198 3.2 6.4 0.00 0.03 0.03 84 1010.4
20260906004815 28 182 4.8 8.0 0.00 0.03 0.03 83 1010.1
20260906003315 28 171 4.8 9.7 0.00 0.03 0.03 83 1010.0
20260906001821 28 139 1.6 4.8 0.00 0.03 0.03 82 1009.6
20260906000329 29 149 1.6 3.2 0.00 0.03 0.03 81 1009.6
20260905234836 29 173 0.0 3.2 0.00 0.03 0.03 80 1009.5
20260905233320 30 173 0.0 3.2 0.00 0.03 0.03 79 1009.6
20260905231835 30 219 1.6 8.0 0.00 0.03 0.03 78 1009.5
20260905230314 30 153 4.8 11.3 0.00 0.03 0.03 78 1009.5
20260905224822 30 149 3.2 9.7 0.00 0.03 0.03 78 1010.0
20260905223352 30 201 3.2 6.4 0.00 0.03 0.03 78 1010.2
20260905221815 30 196 6.4 9.7 0.00 0.03 0.03 80 1010.2
20260905220344 30 229 3.2 6.4 0.00 0.03 0.03 81 1010.3
20260905214815 30 215 1.6 9.7 0.00 0.03 0.03 80 1010.2
20260905213321 29 179 3.2 6.4 0.00 0.03 0.03 81 1010.3
20260905211814 29 142 4.8 8.0 0.00 0.03 0.03 80 1010.3
20260905210325 29 150 1.6 3.2 0.00 0.03 0.03 82 1010.3
20260905204854 29 167 1.6 4.8 0.00 0.03 0.03 82 1010.4
20260905203326 29 167 0.0 3.2 0.00 0.03 0.03 82 1010.4
20260905201818 29 140 1.6 4.8 0.00 0.03 0.03 81 1010.5
20260905200326 29 177 3.2 9.7 0.00 0.03 0.03 80 1010.6
20260905194830 30 156 1.6 4.8 0.00 0.03 0.03 79 1010.7
20260905193340 30 182 3.2 6.4 0.00 0.03 0.03 76 1010.9
20260905191827 30 237 3.2 6.4 0.00 0.03 0.03 75 1010.7
20260905190355 31 143 1.6 4.8 0.00 0.03 0.03 72 1011.2
20260905184817 31 218 6.4 14.5 0.00 0.03 0.03 68 1011.1
20260905183326 32 285 6.4 16.1 0.00 0.03 0.03 69 1011.1
20260905181833 32 333 1.6 17.7 0.00 0.03 0.03 72 1011.1
20260905180332 32 300 4.8 14.5 0.00 0.03 0.03 72 1011.2
20260905174817 32 31 4.8 11.3 0.00 0.03 0.03 72 1011.5
20260905173347 31 16 3.2 12.9 0.03 0.03 0.03 73 1011.6
20260905171836 31 260 3.2 9.7 0.03 0.03 0.03 74 1011.7
20260905170319 31 313 4.8 6.4 0.03 0.03 0.03 76 1012.1
20260905164828 31 265 1.6 9.7 0.03 0.03 0.03 77 1012.5
20260905163337 32 304 4.8 14.5 0.00 0.00 0.00 70 1012.6
20260905161820 32 320 4.8 12.9 0.00 0.00 0.00 73 1012.8
20260905160324 32 231 4.8 11.3 0.00 0.00 0.00 74 1012.9
20260905154850 31 340 8.0 16.1 0.00 0.00 0.00 75 1013.1
20260905153315 31 256 4.8 16.1 0.00 0.00 0.00 78 1013.3
20260905151838 30 341 4.8 11.3 0.00 0.00 0.00 81 1013.4
20260905150316 30 261 4.8 12.9 0.00 0.00 0.00 83 1013.4
20260905144818 28 278 3.2 8.0 0.00 0.00 0.00 87 1013.4
20260905143316 28 241 3.2 6.4 0.00 0.00 0.00 89 1013.4
20260905141827 27 249 3.2 11.3 0.00 0.00 0.00 91 1013.5